Location: Unspecified
(0.0000°N, 0.0000°E)
Time: 14:44:30
(UTC+00:00)

CZ-3 Stage 3 - Pass Details

Date: 22 May 2019
Orbit: 501 x 34691 km, 30.5° (Epoch: 18 June)

Event Time Altitude Azimuth Distance (km) Brightness Sun altitude
Exits shadow 00:02:38 15° 343° (NNW) 4,268 6.4 -69.7°
Maximum altitude 07:19:44 54° 122° (ESE) 29,244 11.1 19.4°
Drops below altitude 10° 09:25:56 10° 128° (SE) 12,166 8.9 47.9°
Sets 09:32:29 0° 126° (SE) 11,443 8.7 49.3°
